Regional Weather Roundup
Issued by NWS Upton, NY

Current Version | Previous Version | Graphics & Text | Print | Product List | Glossary Off
Versions: 1 2 3 4 5 6 7 8 9 10 11 12 13 14 15 16 17 18 19 20 21 22 23 24 25 26 27 28 29 30 31 32 33 34 35 36 37 38 39 40 41 42 43 44 45 46 47 48 49 50

000
ASUS41 KOKX 010518
RWROKX

REGIONAL WEATHER ROUNDUP
NATIONAL WEATHER SERVICE NEW YORK NY
100 AM EDT WED JUL 01 2015

NOTE: "FAIR" INDICATES FEW OR NO CLOUDS BELOW 12,000 FEET WITH NO
SIGNIFICANT WEATHER AND/OR OBSTRUCTIONS TO VISIBILITY.

NYZ071-072-176-178-NJZ106-104-010600-
NEW YORK CITY METRO AREA


CITY           SKY/WX    TMP DP  RH WIND       PRES   REMARKS
CENTRAL PARK   CLOUDY    73  69  87 VRB6      29.86F FOG
LAGUARDIA APRT NOT AVBL
KENNEDY INTL   PTCLDY    73  68  83 S17G23    29.83F
NEWARK/LIBERTY MOCLDY    73  70  88 S5        29.82F
BRNX BOT. GARD   N/A     72  68  88 SW8       29.83F
TETERBORO      NOT AVBL
$$

NYZ177-179-078>081-010600-
LONG ISLAND NEW YORK

CITY           SKY/WX    TMP DP  RH WIND       PRES   REMARKS
FARMINGDALE    NOT AVBL
ISLIP          MOCLDY    72  68  87 SE13      29.85F
SHIRLEY        CLOUDY    71  68  90 SE13G18   29.88F
WESTHAMPTON    NOT AVBL
MONTAUK POINT    N/A     70  66  87 VRB6      29.92F
$$

NYZ052-065-067-010600-
HUDSON VALLEY

CITY           SKY/WX    TMP DP  RH WIND       PRES   REMARKS
WHITE PLAINS   MOCLDY    71  68  90 SE7       29.85F
NEWBURGH       CLOUDY    72  68  88 S8        29.85F
MONTGOMERY     NOT AVBL
POUGHKEEPSIE   NOT AVBL
ALBANY         NOT AVBL
$$

NJZ001-105-106-008-010-013-015-019>022-104-010600-
NEW JERSEY

CITY           SKY/WX    TMP DP  RH WIND       PRES   REMARKS
NEWARK/LIBERTY MOCLDY    73  70  88 S5        29.82F
TETERBORO      NOT AVBL
CALDWELL       CLOUDY    72  69  90 CALM      29.83F
MORRISTOWN     CLOUDY    73  70  88 CALM      29.83S
SOMERVILLE     NOT AVBL
SUSSEX         CLOUDY    69  67  93 CALM      29.81F
ANDOVER          N/A     70  68  93 CALM      29.83F
TRENTON        NOT AVBL
MILLVILLE      NOT AVBL
ATLANTIC CITY  CLOUDY    75  71  87 S8        29.82F
WRIGHTSTOWN    MOCLDY    73  73  99 S7        29.79F
TOMS RIVER     NOT AVBL
BELMAR         NOT AVBL
$$

PAZ047>061-062-071-010600-
EASTERN PENNSYLVANIA

CITY           SKY/WX    TMP DP  RH WIND       PRES   REMARKS
PHILADELPHIA   MOCLDY    74  71  91 S5        29.80F
ALLENTOWN      NOT AVBL
SCRANTON       NOT AVBL
$$

CTZ002-004>006-009-010-012-RIZ004-006-007-MAZ004-011-015-010600-
SOUTHERN NEW ENGLAND
 IN CT

CITY           SKY/WX    TMP DP  RH WIND       PRES   REMARKS
BRADLEY INTL   NOT AVBL
HARTFORD       NOT AVBL
DANBURY        NOT AVBL
WTRBRY/OXFORD  NOT AVBL
BRIDGEPORT     LGT RAIN  72  68  87 E8        29.86F
MERIDEN        NOT AVBL
NEW HAVEN      NOT AVBL
CHESTER        MOCLDY    66  64  94 SE5       29.91F
GROTON         MOCLDY    68  64  87 SE7       29.91F
WILLIMANTIC    NOT AVBL

 IN RI

CITY           SKY/WX    TMP DP  RH WIND       PRES   REMARKS
PROVIDENCE     NOT AVBL
BLOCK ISLAND   NOT AVBL
WESTERLY       NOT AVBL

 IN MA

CITY           SKY/WX    TMP DP  RH WIND       PRES   REMARKS
BOSTON         NOT AVBL
WORCESTER      NOT AVBL
WESTFIELD      NOT AVBL
PROVINCETOWN   NOT AVBL
NANTUCKET      NOT AVBL
$$

ANZ330-335-338-340-345-350-353-355-010600-
COASTAL MARINE OBSERVATIONS


STATION/POSITION TIME  SKY/WX   TEMP    WIND        PRES    VSBY  WAVE
                                AIR SEA DIR/SP/G                  HT/PER
                 (UTC)          (F)     (DEG/KT/KT) (MB)    (MI)  (FT/S)
NY HARB ENTRANCE 0450            71 68  160/ 14/ 17 1009.9          4/ 5
4S FIRE IS       0403               67                N/A           4/ 8
20S FIRE ISLAND  0450            70 66  150/ 16/ 17 1010.7          3/ 8
GREAT SOUTH BAY  0415            71 74  170/ 16/ 19   N/A
23SW MTP         0450            69 66  160/ 12/ 14 1012.2          3/ 8
HUDSON CANYON    NOT AVBL
KINGS POINT      0400            73 65  190/ 13/ 16 1010.0
CENTRAL LI SOUND NOT AVBL
EASTERN LI SOUND 0400            66     120/ 10/ 12   N/A
ROBBINS REEF     0400            71     160/ 20/ 23 1009.0
$$


>>>>>>>>>>>>>>>>>>>>>>>>>>>> KEY <<<<<<<<<<<<<<<<<<<<<<<<<<<
>                                                          <
>     SKY/WX - SKY CONDITION/PRESENT WEATHER               <
>     TMP    - TEMPERATURE IN FAHRENHEIT                   <
>     DP     - DEWPOINT IN FAHRENHEIT                      <
>     RH     - RELATIVE HUMIDITY IN PERCENT                <
>     WIND   - DIRECTION AND SPEED IN MPH                  <
>     PRES   - MEAN SEA LEVEL PRESSURE IN INCHES OF HG     <
>     WCI    - WIND CHILL INDEX                            <
>     VSB    - VISIBILITY IN MILES                         <
>     HX     - HEAT INDEX                                  <
>     TC     - TEMPERATURE IN CELSIUS                      <
>     VRB    - VARIABLE WIND DIRECTION                     <
>                                                          <
>>>>>>>>>>>>>>>>>>>>>>>>>>>> KEY <<<<<<<<<<<<<<<<<<<<<<<<<<<




USA.gov is the U.S. government's official web portal to all federal, state and local government web resources and services.